SCP
1 1 1 0 0 0 0 0 0 0 0 0 0 0 0 0 0 0 0 1 1 1 1 1 1 1 1 1 1 1 1 1 0 0 0 0 0 0 0 0 0 0 0 0 0 0 1 1 1
1 1 1 0 0 0 0 0 0 0 0 0 0 0 0 0 0 0 1 1 1 1 1 1 1 1 1 1 1 1 1 1 0 0 0 0 0 0 0 0 0 0 0 0 0 0 0 0 0
0 0 0 0 0 0 0 0 0 0 0 0 0 0 0 0 0 0 1 1 1 2 2 2 2 2 2 1 1 1 1 1 1 1 0 0 0 0 0 0 0 0 0 0 0 0 0 0 0
0 0 0 0 0 0 0 0 0 0 0 0 0 0 0 0 0 1 1 1 2 2 2 2 2 2 2 2 1 1 1 1 1 1 1 1 0 0 0 0 0 0 0 0 0 0 0 0 0
0 0 0 0 0 0 0 0 0 0 0 0 1 1 0 0 1 1 1 1 1 1 1 2 2 2 2 2 1 1 1 1 1 1 1 1 1 1 0 0 0 0 0 0 0 0 0 0 0
0 0 0 0 0 0 0 0 0 1 1 1 1 1 1 1 1 1 1 1 1 1 1 1 1 1 1 1 1 1 1 1 1 1 1 1 1 1 1 0 0 0 0 0 0 0 0 0 0
0 0 0 0 0 0 0 0 0 1 1 1 1 1 1 1 1 1 1 1 0 0 1 1 1 1 1 1 1 1 1 1 1 1 1 1 1 1 1 0 0 0 0 0 0 0 0 0 0
0 0 0 0 0 0 0 0 0 0 1 1 1 1 1 1 1 1 0 0 0 0 0 0 1 1 1 1 1 1 1 1 1 1 1 1 1 1 1 1 1 1 0 0 0 0 0 0 0
0 0 0 0 0 1 0 0 0 0 1 1 1 1 1 1 1 0 0 0 0 0 0 0 1 1 1 1 1 1 1 1 1 1 1 1 1 1 1 1 1 1 1 1 0 0 0 0 0
0 0 0 0 1 1 1 0 0 0 1 1 1 1 1 1 0 0 0 0 0 0 0 0 1 1 0 0 1 1 1 1 1 1 1 1 1 1 1 1 1 1 1 1 1 0 0 0 0
0 0 0 0 1 1 1 1 1 1 1 1 1 1 1 0 0 0 0 0 0 0 0 0 0 0 0 0 0 0 0 1 1 1 1 1 1 1 1 1 1 2 1 1 1 1 1 0 0
0 1 1 1 1 1 1 1 1 1 1 1 1 1 1 0 0 0 0 0 0 0 0 0 0 0 0 0 0 0 0 0 1 1 1 1 1 1 1 1 2 2 2 1 1 1 1 1 0
1 1 1 1 0 1 1 1 1 1 1 1 1 1 0 0 0 0 0 0 0 0 0 0 0 0 0 0 0 0 0 0 1 1 1 1 1 1 1 1 2 2 1 1 1 1 1 1 1
1 1 1 1 1 1 1 1 1 1 1 1 0 0 0 0 0 0 0 0 0 0 0 0 0 0 0 0 0 0 0 0 0 0 0 1 1 1 1 1 1 1 1 1 1 1 1 1 1
1 1 1 1 1 1 1 1 1 1 1 0 0 0 0 0 0 0 0 0 0 0 0 0 0 0 0 0 0 0 0 0 0 0 0 0 0 0 1 1 1 1 1 1 1 1 1 1 1
0 0 1 1 1 1 1 1 1 1 1 0 0 0 0 0 0 0 0 0 0 0 0 0 0 0 0 0 0 0 0 0 0 0 0 0 0 0 1 1 1 1 1 1 1 1 1 1 1
0 0 0 1 1 1 0 1 1 1 1 0 0 0 0 0 0 0 0 0 0 0 0 0 0 0 0 0 0 0 0 0 0 0 0 0 0 0 1 1 1 1 1 1 1 1 1 1 1
0 0 0 0 1 0 0 0 1 1 0 0 0 0 0 0 0 0 0 0 0 0 0 0 0 0 0 0 0 0 0 0 0 0 0 0 0 0 0 1 1 1 1 1 1 1 1 1 1
0 0 0 0 0 0 0 0 0 0 0 0 0 0 0 0 0 0 0 0 0 0 0 0 0 0 0 0 0 0 0 0 0 0 0 0 0 0 0 0 1 1 1 1 1 1 1 1 1
0 0 0 0 0 0 0 0 0 0 0 0 0 0 0 0 0 0 0 0 0 0 0 0 0 0 0 0 0 0 0 0 0 0 0 0 0 0 0 0 1 1 1 1 1 1 1 1 1
0 0 0 0 0 0 0 0 0 0 0 0 0 0 0 0 0 0 0 0 0 0 0 0 0 0 0 0 0 0 0 0 0 0 0 0 0 0 0 0 0 1 1 1 1 1 1 1 1
0 0 0 0 0 0 0 0 0 0 0 0 0 0 0 0 0 0 0 0 0 0 0 0 0 0 0 0 0 0 0 0 0 0 0 0 0 0 0 0 0 0 0 1 1 1 1 2 2
0 0 0 0 0 0 0 0 0 0 0 0 0 0 0 0 0 0 0 0 0 0 0 0 0 0 0 0 0 0 0 0 0 0 0 0 0 0 0 0 0 0 0 0 1 1 1 2 2
0 0 0 0 0 0 0 0 0 0 0 0 0 0 0 0 0 0 0 0 0 0 0 0 0 0 0 0 0 0 0 0 0 0 0 0 0 0 0 0 0 0 0 0 0 1 1 1 1
0 0 0 0 0 0 0 0 0 0 0 0 0 0 0 0 0 0 0 0 0 0 0 0 0 0 0 0 0 0 0 0 0 0 0 0 0 0 0 0 0 0 0 0 0 0 0 1 1
0 0 0 0 0 0 0 0 0 0 0 0 0 0 0 0 0 0 0 0 0 0 0 0 0 0 0 0 0 0 0 0 0 0 0 0 0 0 0 0 0 0 0 0 0 0 0 0 1
0 0 0 0 0 0 0 0 0 0 0 0 0 0 0 0 0 0 0 0 0 0 0 0 0 0 0 0 0 0 0 0 0 0 0 0 0 0 0 0 0 0 0 0 0 0 0 0 0
0 0 0 0 0 0 0 0 0 0 0 0 0 0 0 0 0 0 0 0 0 0 0 0 0 0 0 0 0 0 0 0 0 0 0 0 0 0 0 0 0 0 0 0 0 0 0 0 0
0 0 0 0 0 0 0 0 0 0 0 -0 0 0 0 0 0 0 0 0 0 0 0 0 0 0 0 0 0 0 0 0 0 0 0 0 0 0 0 0 0 0 0 0 0 0 0 0 0
0 0 0 0 0 0 0 0 0 0 -0 -0 -0 0 0 0 0 0 0 0 0 0 0 0 0 0 0 0 0 0 0 0 0 0 0 0 0 0 0 0 0 0 0 0 0 0 0 0 0
Wind_Speed
9 9 5 1 2 1 4 6 8 8 7 9 11 11 13 13 9 7 2 7 8 12 12 11 9 7 5 4 3 2 2 1 1 2 2 2 2 2 2 2 2 2 2 1 2 2 2 3 3
8 7 4 2 1 1 4 5 7 9 8 6 9 12 12 11 10 7 5 6 8 11 11 10 10 7 5 4 3 3 3 3 3 3 3 4 4 3 3 3 3 3 2 2 1 2 2 2 2
9 6 3 3 1 3 4 5 6 8 8 8 10 12 9 7 7 4 4 6 10 12 11 11 10 9 7 5 4 4 3 4 4 4 5 5 5 5 5 4 4 4 3 3 2 2 2 2 2
5 3 4 2 3 7 7 5 6 7 9 10 10 11 8 7 4 5 7 9 11 11 10 10 11 10 8 7 6 4 4 4 4 5 6 6 6 6 6 6 6 5 5 4 4 3 3 3 3
4 3 1 2 4 7 7 7 8 8 9 11 12 10 8 6 7 7 8 9 9 8 7 8 9 8 7 6 5 4 4 4 4 5 6 6 7 7 7 7 7 7 6 6 5 4 4 4 4
3 3 1 0 3 7 6 6 8 8 9 10 10 10 7 6 7 7 8 7 7 6 5 5 7 6 5 4 4 3 3 3 4 4 5 6 7 8 8 8 8 8 8 7 6 5 5 6 5
4 4 2 3 4 4 6 6 8 7 9 9 8 9 7 7 5 6 6 6 5 4 3 2 2 3 3 2 0 2 3 4 4 4 5 6 7 8 9 9 9 9 9 8 8 7 7 7 6
5 5 5 4 4 5 6 5 7 8 8 8 8 7 7 6 5 5 4 4 4 3 2 1 1 1 1 2 5 4 4 5 6 6 6 6 7 9 10 9 9 10 10 9 9 8 8 8 8
8 3 2 3 3 5 5 5 6 5 10 11 12 11 8 6 4 3 3 3 4 3 2 1 1 1 1 2 3 4 5 7 6 6 8 7 4 4 5 8 9 9 10 9 10 10 10 9 10
6 0 3 1 3 6 4 4 4 4 8 10 10 9 7 5 3 4 4 5 5 5 5 4 4 3 3 3 1 1 3 3 4 4 4 3 3 3 5 5 8 9 9 9 10 11 10 8 6
4 1 3 4 5 5 4 3 1 1 4 6 8 7 5 3 4 5 5 5 5 5 6 6 6 5 4 3 2 1 2 2 4 5 4 3 3 3 4 2 4 4 6 4 6 6 5 5 5
4 1 3 6 4 1 2 3 3 6 6 8 8 5 4 4 5 5 5 5 4 5 4 5 6 6 6 4 3 3 3 2 2 3 3 3 2 3 3 3 3 3 3 3 3 2 4 6 6
3 2 3 5 4 2 1 3 3 6 6 7 7 5 3 4 5 4 5 6 5 5 4 5 5 6 5 4 3 4 3 2 3 2 3 4 3 3 3 3 3 4 4 4 3 3 4 5 5
4 5 6 6 5 4 3 4 5 7 7 6 5 5 3 4 3 3 5 6 6 6 6 6 5 5 6 5 5 4 4 3 3 2 3 4 3 3 3 3 3 4 4 5 5 5 4 4 3
5 7 7 6 4 2 3 6 7 11 8 7 6 5 4 2 1 2 5 6 7 7 7 5 4 6 6 6 6 5 4 4 3 3 4 4 3 3 2 2 2 3 4 5 5 5 4 4 3
7 8 5 4 4 3 4 4 11 11 9 7 5 5 5 4 3 4 7 7 7 6 6 5 6 6 5 5 5 4 4 4 4 4 4 6 6 5 2 2 2 3 3 4 4 4 4 4 3
6 3 5 3 8 6 6 4 10 10 8 7 7 5 5 4 2 7 7 6 5 4 5 5 4 4 5 5 4 4 4 4 3 3 4 5 6 6 4 2 2 3 2 2 4 4 4 4 5
3 1 6 7 7 5 6 5 8 11 8 6 5 4 3 1 4 8 5 3 2 3 4 4 3 4 5 4 5 3 4 4 3 3 4 5 4 6 5 3 3 3 2 2 3 3 4 4 5
7 7 9 2 6 1 7 7 5 11 8 6 6 5 3 1 4 7 3 2 3 4 4 4 4 5 4 3 4 4 4 4 3 3 5 5 5 6 5 4 3 3 2 3 3 3 4 4 4
10 13 8 3 6 2 7 8 4 9 8 6 5 4 3 3 3 5 2 4 4 2 3 5 5 4 4 3 4 4 4 3 3 3 4 5 5 5 6 5 4 3 2 3 3 2 2 3 3
11 7 6 8 7 6 7 7 6 7 5 5 4 3 3 1 2 3 3 4 2 3 5 6 5 5 6 5 3 5 4 3 4 4 3 4 4 4 4 5 5 5 3 2 3 3 2 2 3
5 7 5 6 7 6 3 3 7 9 7 7 6 5 3 2 3 2 2 3 3 5 5 5 6 5 5 5 3 4 4 4 4 3 3 4 3 4 4 5 5 4 3 3 4 2 2 2 3
5 4 5 7 8 9 7 6 5 8 6 6 5 4 3 3 4 3 3 2 3 3 3 3 4 4 4 4 5 3 3 3 3 3 4 4 3 3 4 4 5 4 3 4 4 4 3 2 3
1 5 8 7 7 8 6 4 5 4 5 5 5 4 4 4 4 4 4 2 1 1 2 2 1 2 2 3 5 4 3 5 4 4 4 4 3 3 5 5 5 4 4 4 4 4 4 3 3
6 7 5 7 7 4 7 2 4 9 7 4 3 3 5 5 3 4 4 2 1 1 1 2 3 3 2 3 4 5 4 4 5 4 4 4 3 3 4 5 4 4 4 4 4 4 4 4 4
4 6 6 6 3 4 5 3 8 9 7 4 3 2 3 5 4 3 3 2 2 1 1 1 2 3 2 2 3 4 4 3 3 4 4 4 3 2 3 4 5 4 4 5 4 3 4 4 4
5 5 3 6 9 4 6 8 9 6 7 5 3 3 2 4 5 4 3 3 2 1 1 1 2 3 2 2 2 2 3 3 4 4 4 4 4 4 4 4 5 5 4 4 4 3 4 4 4
5 8 4 4 5 5 3 5 6 6 4 4 4 4 4 3 4 5 5 4 3 2 2 3 3 3 1 2 2 2 2 2 3 3 3 3 5 5 4 4 4 5 4 4 4 4 5 5 5
7 5 4 5 5 3 3 4 6 6 4 2 1 2 3 3 4 4 4 4 4 4 4 4 3 2 1 1 2 2 2 2 4 3 2 3 4 5 5 5 5 5 4 5 4 5 5 5 6
2 4 4 4 4 2 2 3 5 5 3 1 1 1 2 3 3 3 3 3 3 3 2 2 1 1 2 1 2 3 2 2 3 3 3 4 5 5 5 5 5 5 5 5 5 6 6 6 6
Wind_Direction
199 213 208 219 255 261 49 50 52 32 40 46 49 64 67 51 46 77 39 30 79 103 114 113 102 93 85 75 58 35 14 349 325 313 305 302 300 307 317 322 327 331 335 344 357 355 360 3 8
218 207 213 227 247 82 62 48 58 49 40 47 63 68 67 59 52 71 28 21 69 90 97 97 95 85 72 57 32 6 347 326 305 294 290 286 281 281 283 288 294 298 300 296 313 320 318 325 338
239 227 237 226 253 91 80 51 54 63 48 58 68 60 52 40 42 49 14 41 66 79 83 84 82 73 61 48 34 14 346 322 303 292 287 282 276 273 272 273 276 278 279 277 272 280 290 292 296
224 225 253 257 65 70 74 67 57 59 54 62 78 74 69 39 49 48 40 55 66 73 80 79 75 70 62 51 40 22 357 329 308 295 286 280 276 270 266 265 266 268 268 267 262 262 271 274 275
229 238 290 340 77 74 58 54 64 57 54 63 79 89 82 57 67 64 61 59 68 73 80 86 82 75 65 53 41 23 1 340 320 304 292 283 276 270 265 259 261 264 265 263 259 258 261 263 263
252 234 197 27 87 89 69 44 57 63 53 51 89 97 81 77 70 73 72 65 66 67 73 96 104 95 79 56 35 13 349 331 320 306 295 284 278 274 268 259 256 258 259 258 256 253 256 257 256
256 266 261 112 102 93 77 49 43 55 53 35 54 94 105 89 84 88 95 96 90 86 87 89 110 132 136 141 250 329 315 307 301 296 289 285 274 265 262 258 252 250 251 251 250 248 248 251 251
262 286 3 356 82 93 87 78 54 47 62 44 41 93 106 105 118 107 102 99 95 91 83 100 124 132 170 200 209 226 261 275 280 281 274 274 271 259 253 253 247 243 245 246 247 247 246 245 246
262 284 37 334 34 96 97 99 90 76 81 70 64 78 99 117 114 101 87 63 50 35 27 29 6 346 274 251 230 217 249 252 260 267 257 256 257 252 243 242 243 240 239 242 245 246 245 244 242
234 237 165 220 28 98 99 84 110 125 107 104 100 103 118 123 100 66 45 38 25 14 12 4 354 336 307 303 324 239 266 248 236 241 249 236 240 245 250 249 246 245 240 240 244 247 246 241 241
251 200 138 92 49 85 116 107 44 94 104 111 122 123 114 100 69 47 35 30 17 20 12 357 1 342 339 340 338 320 279 262 250 243 238 234 236 235 235 232 236 235 237 236 241 241 240 237 238
237 65 71 93 84 100 121 116 86 46 78 96 101 110 110 74 51 36 23 20 10 35 3 14 4 347 348 348 341 296 267 259 267 265 261 246 241 236 227 216 213 198 205 217 232 230 242 255 253
286 80 84 114 147 140 101 118 117 114 104 108 121 121 102 67 33 27 24 15 8 29 13 38 3 350 345 341 307 310 312 313 302 288 271 261 244 245 240 226 211 206 199 200 205 218 232 254 270
152 172 178 169 161 157 183 173 179 145 146 152 160 161 129 79 25 0 26 13 10 20 16 36 355 359 347 345 338 330 324 305 292 284 279 272 253 245 247 235 223 217 206 199 203 211 222 240 263
182 192 193 184 186 154 249 234 193 138 167 178 190 173 133 108 299 24 38 20 18 16 9 17 357 11 355 350 339 328 316 324 333 326 315 308 296 267 258 260 253 230 212 205 200 209 214 231 254
234 234 227 179 178 147 253 300 129 145 179 190 206 187 165 170 234 68 47 30 23 15 357 4 14 1 354 346 326 323 326 344 338 338 338 341 337 333 312 276 268 256 226 205 202 201 203 215 225
222 281 316 237 195 179 224 275 148 164 187 202 206 222 180 195 151 77 53 33 21 18 348 357 22 1 0 347 328 341 344 344 342 347 354 349 343 334 333 318 291 279 255 226 225 208 198 207 210
269 181 262 246 178 214 264 276 166 170 189 220 219 221 218 206 80 79 56 37 32 41 347 344 21 23 10 4 336 356 352 346 347 356 359 349 333 331 328 317 321 325 305 263 247 237 212 206 206
318 268 264 236 132 268 291 285 198 166 181 211 233 223 225 133 95 92 75 65 46 41 341 338 32 24 17 12 340 346 349 338 356 1 3 349 348 345 333 331 325 321 310 289 267 251 236 223 201
264 271 286 48 99 324 296 286 238 167 180 204 239 248 217 153 122 115 99 62 30 18 350 3 32 23 21 9 354 343 350 336 5 0 4 356 357 355 350 348 335 321 309 301 295 268 249 249 204
247 284 357 348 330 278 267 262 204 155 171 183 207 269 294 112 83 66 67 72 5 24 23 6 24 24 25 0 15 346 340 345 1 352 356 344 359 14 4 348 343 335 333 312 300 278 260 254 241
302 48 359 319 297 284 222 290 159 158 169 187 191 201 218 138 117 91 61 53 22 32 29 6 19 16 20 359 2 339 348 352 337 335 344 343 12 22 12 356 348 340 342 335 318 322 272 254 257
31 19 305 286 280 282 243 245 144 147 174 175 163 172 165 143 133 126 105 64 38 32 33 11 15 11 18 350 323 326 356 323 320 337 353 346 345 12 28 3 346 342 344 343 336 332 313 267 251
39 271 256 246 256 258 226 242 132 141 107 97 114 136 140 144 139 136 126 125 96 61 41 6 1 5 3 336 323 335 343 334 338 354 354 341 340 0 20 3 347 344 347 337 330 322 311 293 275
231 257 257 220 216 208 119 189 94 97 85 74 72 94 126 130 151 154 155 157 152 114 53 351 6 352 357 350 334 343 357 344 348 2 340 332 340 354 360 355 336 334 333 325 327 324 308 293 282
244 272 285 303 292 124 158 177 101 105 107 110 124 122 132 150 158 154 155 156 179 176 110 352 334 304 322 342 349 340 346 0 355 341 332 336 336 340 348 341 323 323 333 331 328 314 312 315 306
271 244 306 315 294 282 170 127 123 135 142 139 140 145 182 164 156 170 173 176 192 185 135 274 293 299 334 352 333 332 3 0 347 331 342 343 329 331 338 320 321 326 329 327 335 329 323 323 308
295 334 312 265 300 299 154 142 129 135 128 141 158 168 174 173 173 174 170 172 187 204 208 250 251 261 349 357 334 350 337 334 315 301 332 326 311 308 308 323 329 330 340 349 358 338 329 326 311
187 217 242 275 274 287 337 74 79 92 76 36 36 114 143 165 167 166 167 178 188 199 213 230 237 201 122 341 327 306 288 288 292 292 320 311 313 333 339 335 326 330 347 359 356 338 331 326 318
221 257 262 269 301 290 275 107 102 105 114 129 338 93 137 135 150 163 176 192 207 208 233 244 266 217 151 131 319 299 297 293 313 336 350 338 335 335 327 327 330 341 357 1 348 337 335 326 321